Zurück zum Katalog

HULIANWANG DIGUI-57

AktivKommunikationLEO
NORAD 65114·PAYLOAD·🇨🇳 China

Gestartet Aug 4, 2025 von Wenchang Space Launch Site

Loading…

Nächste Überflüge (nächste 24 Stunden)

TLE

AktuellSource: Space-Track

Epoche: Sep 14, 2026, 20:36 UTC

1 65114U 25168J   26257.85874695 -.00000079  00000-0  96805-4 0  9992
2 65114  50.0036   3.7111 0008770  13.0752 347.0346 13.29330505 54632

Verfolge HULIANWANG DIGUI-57 in Echtzeit mit AllMySat

Download on the App Store